STARLINK-32281, 60375

Orbit data source: Space-Track

STARLINK-32281, 60375 is a payload satellite owned by SpaceX/Seattle (US) in LEO that was launched on Sun, 04 Aug 2024 UTC via an FALCON 9 launch vehicle from the Air Force Western Test Range (AFWTR). Payload-class satellites include a variety of spacecraft equipped with specific instruments for various scientific and technological missions. These include communications satellites like Starlink; space stations such as the ISS; scientific satellites like the Hubble; Earth observation satellites from companies like Planet Labs, Umbra, and HawkEye 360; GPS; miniature CubeSats for education and research; and military/defense satellites.

Loading next visibility...
Identifier
60375, 2024-138W
Orbit
LEO
Country
Flag of USUS
Related business
Manufacturer
SpaceX/Seattle
Mission
Operational Commercial Communications
Bus & Motor
STARLINK V2M, Unknown motor
Mass
730 kg wet, ~700 kg dry
Launch date (UTC)
2024-08-04 (2 years ago)
Launch vehicle
FALCON 9
Launch site
Air Force Western Test Range (AFWTR)
Object type
Payload
Rocket body
Debris
Shape & HBR
Box + 2 Pan, 17.7 m
Radar Cross Section
33.884 m², Large (>1 m²)

Expand to show TLE details & history
Last TLE update: 16 hours ago

TLE from 16 hours ago
0 STARLINK-32281
1 60375U 24138W   26257.95840768  .00001428  00000-0  53445-4 0  9998
2 60375  53.1588 147.7663 0001924  89.8125 270.3098 15.34377625119548
Epoch: 2026-09-14T23:00Z
TLE epoch observation values (Epoch: 2026-09-14T23:00:06.423Z)
Latitude
-0.00003°
Longitude
168.80828°
Altitude
463.664 km
Speed
7.636 km/s
True Right ascension
09h 51m 03s
True Declination
0° 00' 00"
Sunlit
Object was in daylight at epoch
Visualization orbit readout
Latitude
Unknown
Longitude
Unknown
Altitude
Unknown
Speed
Unknown
Apparent Right ascension
Unknown
Apparent Declination
Unknown
Sunlit
N/A
Visualization observer readout
Local Sidereal Time
07:49:43
Azimuth
Unknown
Elevation
Unknown
Doppler factor
Unknown
Orbital elements
Apogee altitude
464.343 km
Perigee altitude
461.711 km
Semi-major axis
6,841.164 km
Eccentricity
0.00019
Inclination
53.1588°
RAAN
147.7663°
Arg. of periapsis
89.8125°
True anomaly
270.28775°
Mean anomaly
270.3098°
Eccentric anomaly
270.29878°
Mean motion
3.83573 °/min
Orbital period
93.85 mins
BSTAR
0.000053445
Loading maneuver chart data...
Computing Atmospheric mass density...
Loading historical data...
Loading historical data...
Loading historical data...
Loading historical data...
Loading historical data...
Loading historical data...
Loading historical data...

Documentation

Showing up to 5 results
|